Weather in Khani

Russia / Sakha (Yakutia) Republic     56°54′58″N   119°57′58″E
temp.,
°C
wind,
m/s
gust,
m/s
humid.,
%
clouds,
%
prec.,
mm/h
press.,
hPa
HPBL,
m
22 april, thu
thu2200:00−9nnw3293100 0.6 102139
03:00−12nnw3389100 0.8 102526
06:00−16nw338880 0.0 102917
09:00−10nw356023 0.0 1029976
12:00−9nw91157100 0.0 10301756
15:00−8nw91166100 0.1 10311958
18:00−8nw3759100 0.3 10321630
21:00−13wnw329291 0.4 103714
23 april, fri
fri2300:00−15wnw339072 0.1 104117
03:00−18wnw43866 0.1 104416
06:00−19wnw43842 0.0 104514
09:00−10w22650 0.0 1040242
12:00−7wnw34543 0.0 1037852
15:00−5wnw354957 0.0 10351050
18:00−5wnw366237 0.0 1034922
21:00−12wnw438336 0.0 103714
24 april, sat
sat2400:00−12wnw547520 0.0 103726
03:00−13wnw448224 0.1 103832
06:00−12wnw448552 0.1 103745
09:00−6wnw487559 0.1 1034621
12:00−3wnw5106999 0.0 10331458
15:00−2wnw4867100 0.1 10311407
18:00−2wnw346816 0.0 1031845
21:00−10nw33865 0.0 103513
25 april, sun
sun2500:00−12wnw33905 0.0 103514
03:00−12wnw22895 0.0 103311
06:00−13wnw2287100 0.0 103011
09:00−5se2175100 0.0 1024143
12:00−3se2282100 0.0 1019305
15:00−1se229089 0.0 1015366
18:00−1ese2291100 0.0 1012147
21:00−3w0098100 0.1 101210
26 april, mon
mon2600:00−4nw1196100 0.2 101011
03:00−3nnw2297100 1.5 100832
06:00−5nw2291100 0.3 100820
09:00−2nw227596 0.3 1006273
12:000nnw2476100 0.1 1004954
15:000nw3667100 0.2 10041139
18:00−1nw3468100 0.1 1005831
21:00−4nw3287100 0.3 100835